#timestamp,LO_Frequency,Hit 
1504764015.1,286047017.4,N
1504764035.9,286047018.3,N
1504764055.7,286047017.4,N
1504764075.5,286047016.3,N
1504764095.4,286047016.9,N
1504764115.2,286047017.9,N
1504764135.0,286047019.0,N
1504764135.9,286047019.0,N
1504764155.8,286047028.1,P
1504764175.6,286047022.0,N
1504764195.4,286047019.3,N
1504764215.3,286047020.7,P
1504764235.1,286046999.7,N
1504764236.0,286046999.7,N
1504764255.8,286046999.8,N
1504764275.7,286046999.5,N
1504764295.5,286046995.2,N
1504764315.3,286046993.4,N
1504764335.2,286046991.9,N
1504764355.9,286046992.8,N
1504764375.7,286046995.6,N
1504764395.5,286046998.7,N
1504764415.4,286047003.5,N
1504764435.2,286047004.7,N
1504764455.0,286047007.2,N
1504764455.9,286047007.2,N
1504764475.8,286047008.2,N
1504764495.6,286047011.6,N
1504764515.4,286047006.2,N
1504764535.3,286047009.1,N
1504764555.1,286047007.1,N
1504764575.8,286047009.6,N
1504764595.7,286047008.4,N
1504764615.5,286047003.4,N
1504764635.3,286046999.7,N
1504764655.2,286047000.7,N
1504764675.9,286046998.7,N
1504764695.7,286046995.7,N
1504764715.5,286046994.9,N
1504764735.4,286046995.4,N
1504764755.2,286047001.0,N
1504764775.0,286047003.3,N
1504764775.9,286047003.3,N
1504764795.8,286047006.3,N
1504764815.6,286047002.0,N
1504764835.4,286047004.1,N
1504764855.3,286047004.4,N
1504764875.1,286047001.9,N
1504764895.8,286047004.5,N
1504764915.7,286047005.3,N
1504764935.5,286047006.4,N
1504764955.3,286047008.3,N
1504764975.2,286047010.7,N
1504764995.9,286047007.1,N
1504765015.7,286047002.0,N
1504765035.5,286047001.4,N
1504765055.4,286047003.5,N
1504765075.2,286047005.1,N
1504765095.0,286047004.4,N
1504765095.9,286047004.4,N
1504765115.8,286047006.7,N
1504765135.6,286047006.4,N
1504765155.4,286047005.2,N
1504765175.3,286047000.1,N
1504765195.1,286046993.8,N
1504765215.8,286046997.8,N
1504765235.7,286047000.9,N
1504765255.5,286046998.2,N
1504765275.3,286047000.3,N
1504765295.2,286047002.7,N
1504765315.9,286046997.5,N
1504765335.7,286046994.7,N
1504765355.6,286046991.1,N
1504765375.4,286046989.7,N
1504765395.2,286046989.3,N
1504765415.0,286046991.4,N
1504765416.0,286046991.4,N
1504765435.8,286046993.2,N
1504765455.6,286046992.1,N
1504765475.4,286046994.2,N
1504765495.3,286046992.0,N
1504765515.1,286046995.6,N
1504765535.8,286047000.4,N
1504765555.7,286047003.4,N
1504765575.5,286047007.2,N
1504765595.3,286047005.0,N
1504765615.2,286047005.7,N
1504765635.9,286047000.6,N
1504765655.7,286046995.4,N
1504765675.6,286046992.1,N
1504765695.4,286046995.5,N
1504765715.2,286046999.1,N
1504765735.0,286046998.5,N
1504765736.0,286046998.5,N
1504765755.8,286046999.0,N
1504765775.6,286046997.3,N
1504765795.4,286046996.3,N
1504765815.3,286046995.2,N
1504765835.1,286046996.0,N
1504765855.8,286046991.1,N
1504765875.7,286046989.9,N
1504765895.5,286046985.9,N
1504765915.3,286046982.2,P
1504765935.2,286046987.3,N
1504765955.0,286046986.9,N
1504765955.9,286046986.9,N
1504765975.7,286046987.4,N
1504765995.6,286046986.0,P
1504766015.4,286046995.7,P
1504766035.2,286046999.6,N
1504766055.1,286047003.0,N
1504766056.0,286047003.0,N
1504766075.8,286047004.9,N
1504766095.6,286047001.2,N
1504766115.5,286046996.9,N
1504766135.3,286046995.7,N
1504766155.1,286047000.4,N
1504766175.9,286046997.6,N
1504766195.7,286046999.6,N
1504766215.5,286046995.3,N
1504766235.4,286046996.8,N
1504766255.2,286047002.7,N
1504766275.0,286046996.6,N
1504766275.9,286046996.6,N
1504766295.8,286046995.2,N
1504766315.6,286046999.3,N
1504766335.4,286046998.5,N
1504766355.2,286046996.5,N
1504766375.1,286046997.4,N
1504766376.0,286046997.4,N
1504766395.8,286047002.0,N
1504766415.6,286047000.6,N
1504766435.5,286046999.6,N
1504766455.3,286046994.6,N
1504766475.1,286046991.3,N
1504766495.9,286046989.2,N
1504766515.7,286046991.2,N
1504766535.5,286046989.5,N
1504766555.4,286046991.3,N
1504766575.2,286046994.7,N
1504766595.0,286046992.6,N
1504766595.9,286046992.6,N
1504766615.8,286046994.3,N
1504766635.6,286046994.4,N
1504766655.4,286046991.7,N
1504766675.3,286046990.8,N
1504766695.1,286046989.2,N
1504766696.0,286046989.2,N
1504766715.8,286046989.1,N
1504766735.7,286046989.2,N
1504766755.5,286046990.1,N
1504766775.3,286046995.7,N
1504766795.1,286046997.8,N
1504766815.9,286046990.1,N
1504766835.7,286046991.5,N
1504766855.5,286046991.5,N
1504766875.4,286046992.4,N
1504766895.2,286046995.2,N
1504766915.0,286046997.0,N
1504766915.9,286046997.0,N
1504766935.8,286046994.4,N
1504766955.6,286046991.7,N
1504766975.4,286046997.4,N
1504766995.3,286046997.8,N
1504767015.1,286046997.8,N
1504767016.0,286046997.8,N
1504767035.8,286046997.5,N
1504767055.7,286046996.2,N
1504767075.5,286046994.1,N
1504767095.3,286046993.2,N
1504767115.2,286046988.5,P
1504767135.9,286046993.6,N
1504767155.7,286046994.2,N
1504767175.6,286046993.6,N
1504767195.4,286046996.4,N
1504767215.2,286046994.4,N
1504767235.0,286046997.4,N
1504767236.0,286046997.4,N
1504767255.8,286047000.5,N
1504767275.6,286047003.9,N
1504767295.4,286047002.6,N
1504767315.3,286047000.0,N
1504767335.1,286047001.8,N
1504767355.8,286047002.2,N
1504767375.7,286047000.8,N
1504767395.5,286047000.4,N
1504767415.3,286047001.1,N
1504767435.2,286047000.2,N
1504767455.9,286046999.0,N
1504767475.7,286047000.3,N
1504767495.6,286047000.1,N
1504767515.4,286047000.5,N
1504767535.2,286046996.5,N
1504767555.0,286046998.7,N
1504767556.0,286046998.7,N
1504767575.8,286046997.0,N
1504767595.6,286047000.7,N
